RH
72 72 73 73 73 74 73 72 75 76 77 77 77 77 79 80 80 85 59 39 63 67 70 34 34 39 36 41 35 38 52 49 40 36 25 18 21 13 55 61 58 58 61 60 66
72 72 72 72 72 72 72 73 77 78 78 78 78 79 81 82 93 89 51 65 72 68 52 27 26 26 34 40 37 37 53 41 32 24 24 21 22 17 16 56 60 63 56 63 70
73 73 71 71 72 72 74 78 78 77 77 77 78 79 82 89 63 28 53 62 73 80 56 37 30 19 26 31 38 35 28 27 22 24 25 27 23 18 16 44 58 64 72 74 86
73 74 74 74 74 75 78 83 80 77 76 77 78 80 81 91 19 13 55 59 65 72 57 41 35 36 25 20 21 29 25 21 18 19 18 16 16 14 15 14 44 51 68 80 87
74 75 76 76 76 77 82 84 82 79 78 78 78 77 81 30 30 20 52 43 29 42 45 40 34 30 24 19 16 19 20 16 15 14 13 12 11 11 13 13 13 28 73 81 83
74 76 77 77 77 80 83 83 83 83 80 78 78 76 73 36 25 29 33 27 26 30 28 29 28 23 24 19 17 15 14 14 13 12 13 11 11 12 9 12 24 41 79 79 79
75 80 82 80 81 83 82 81 83 85 83 76 78 74 48 36 35 42 27 32 29 32 31 26 24 30 30 26 20 16 18 14 12 15 15 12 12 12 8 22 55 50 77 78 77
75 80 84 84 83 83 82 80 82 82 80 78 76 84 59 39 37 24 25 22 20 31 29 26 20 27 30 27 25 25 24 25 13 13 13 10 15 11 9 28 64 56 74 78 78
77 80 84 84 84 84 80 77 78 68 79 82 81 85 36 26 21 23 26 25 23 30 30 23 24 29 31 39 41 34 35 23 17 16 13 12 13 12 9 60 67 65 64 69 73
80 81 84 84 85 85 78 75 66 59 65 61 54 48 24 20 22 26 24 20 35 33 37 37 35 34 39 38 42 34 40 33 24 16 13 13 12 10 11 54 64 65 64 64 65
79 82 85 85 85 87 65 67 74 57 68 59 40 35 25 16 23 30 22 24 31 46 59 51 59 48 33 31 25 27 30 32 28 13 12 12 11 9 11 26 72 66 63 63 63
83 84 85 85 86 79 53 76 75 70 90 63 41 24 15 17 28 28 19 30 44 56 50 63 73 46 33 36 35 34 32 31 26 19 13 12 11 12 12 18 49 65 64 60 61
83 85 86 86 82 62 68 58 58 70 90 57 18 18 18 19 32 30 21 27 58 59 55 65 54 41 44 49 47 41 40 35 30 25 15 14 14 13 10 10 22 60 59 57 57
83 85 86 88 55 70 60 59 64 73 78 28 22 20 18 20 24 26 19 32 38 61 42 56 43 42 48 55 45 55 34 30 27 26 23 14 18 14 12 10 15 45 62 60 56
84 85 86 82 60 65 47 60 72 70 70 26 24 17 20 24 25 23 20 27 35 38 46 52 51 42 56 50 44 48 34 32 27 26 22 18 21 18 14 13 11 15 61 59 56
84 84 84 66 76 62 58 81 49 56 63 34 26 28 29 24 27 23 27 24 28 35 30 32 30 41 65 60 46 33 36 33 28 26 32 20 22 18 16 12 12 12 25 55 57
84 85 82 66 52 49 84 55 60 79 32 35 36 32 31 35 32 28 42 41 44 57 52 35 35 68 84 79 60 50 48 49 46 37 36 19 23 17 14 11 10 11 16 42 51
83 82 62 53 52 81 54 44 71 37 40 30 32 33 44 38 39 36 50 47 37 37 63 55 56 82 77 94 96 87 50 50 51 45 36 20 26 19 12 12 58 82 35 22 44
79 79 55 44 56 59 54 84 60 40 33 36 36 46 50 44 48 45 57 50 43 39 62 75 58 39 65 70 60 64 48 39 41 40 39 28 19 20 55 68 93 95 92 59 40
94 73 49 54 68 54 59 53 43 32 32 35 47 44 54 50 56 50 66 52 49 40 36 53 70 44 36 57 50 61 54 61 60 43 42 32 26 59 74 59 97 96 91 95 96
88 64 51 57 62 58 84 54 40 29 31 40 45 46 50 51 53 59 65 52 49 46 44 58 66 59 39 92 95 77 78 71 68 70 43 38 70 67 81 94 86 87 90 91 92
89 79 61 65 62 91 91 56 44 39 35 39 42 48 56 51 52 57 56 57 48 48 68 74 70 64 55 95 61 50 88 83 78 82 73 70 92 59 75 80 76 80 77 75 80
95 92 66 66 94 95 72 48 46 46 47 48 51 52 55 58 64 55 57 48 44 48 61 66 82 73 42 61 52 55 48 84 75 80 72 78 86 78 62 74 72 73 68 60 64
88 93 83 84 88 79 76 61 60 52 52 51 50 56 64 64 56 61 69 60 57 51 49 52 87 84 84 77 69 65 51 41 84 90 85 74 91 92 92 67 63 61 55 53 53
92 93 88 95 92 79 66 63 66 74 58 56 59 71 71 70 64 70 66 61 48 46 51 53 73 62 63 54 52 52 49 60 94 93 92 88 95 98 98 55 56 50 46 48 47
98 98 96 95 83 70 72 74 74 70 62 64 80 71 68 74 77 86 66 59 56 44 52 59 68 56 59 50 48 49 51 54 84 92 94 95 95 100 94 45 41 42 42 42 44
96 93 84 85 87 82 80 77 76 72 66 67 75 76 74 68 63 63 61 63 66 71 71 65 70 66 68 53 54 66 78 64 62 95 96 94 99 100 97 94 60 49 41 39 37
Wind_Speed
23 23 22 21 21 21 20 20 19 18 17 17 16 16 16 14 12 3 3 10 7 10 11 3 3 4 2 3 5 5 1 6 11 10 10 4 2 8 2 5 4 6 5 4 24
23 23 23 22 21 20 19 19 18 18 17 16 16 15 13 10 2 1 10 15 17 15 4 3 1 4 1 4 3 5 5 12 4 11 10 6 2 4 7 1 4 4 1 19 25
23 23 23 22 22 20 19 18 17 17 16 15 15 15 11 4 1 5 8 21 15 6 6 3 1 2 3 3 4 6 12 4 11 5 6 6 6 6 8 7 7 15 15 22 22
24 24 24 24 24 22 21 19 18 17 16 13 13 13 11 2 7 7 17 23 14 7 1 3 1 2 3 6 5 7 7 8 11 7 5 7 6 8 5 15 8 9 15 22 25
25 25 25 25 24 23 21 20 20 18 15 12 10 11 4 6 4 9 18 15 9 4 2 2 2 2 4 5 4 8 3 8 12 11 8 9 15 12 11 13 10 13 21 24 22
26 26 26 26 26 25 24 21 20 17 13 7 6 7 2 17 6 8 11 10 11 7 8 3 6 6 7 6 7 6 8 13 12 22 9 14 7 4 17 6 11 18 27 25 25
27 27 27 27 26 25 24 22 20 16 9 1 1 2 5 4 6 9 10 7 8 5 5 5 5 2 2 7 7 7 12 15 19 6 8 5 12 21 18 9 11 21 25 25 25
28 27 27 26 26 26 25 22 18 11 6 6 4 2 3 4 4 15 20 22 20 4 4 12 8 7 6 6 7 7 6 8 12 13 6 10 28 12 9 10 12 18 20 21 24
28 26 25 25 25 25 26 23 11 6 7 7 4 3 5 12 10 14 18 22 15 7 10 12 6 9 4 5 5 6 15 16 13 2 5 12 21 4 11 10 13 19 20 21 20
28 26 25 24 23 23 27 10 8 7 3 2 1 3 10 21 9 15 21 23 4 10 7 7 3 3 4 8 19 15 8 6 4 5 7 11 20 9 3 9 16 20 21 22 21
29 28 25 23 21 19 15 6 9 10 11 3 6 3 7 16 3 15 22 17 6 2 4 5 3 15 21 11 20 16 22 18 5 7 8 15 18 16 9 8 10 18 22 22 23
29 28 26 22 20 10 7 7 2 4 6 5 6 5 9 10 9 16 21 16 8 7 7 4 15 15 17 10 15 13 19 24 20 10 10 17 21 6 8 10 14 18 20 22 22
29 28 27 23 13 5 2 6 5 5 1 6 6 7 14 9 5 13 23 13 6 6 10 9 18 16 15 17 17 18 19 20 20 8 15 5 14 8 9 8 10 17 24 23 25
29 27 24 27 7 3 2 3 4 3 4 11 12 8 14 14 10 6 16 8 7 12 16 12 9 21 15 19 18 19 18 20 16 9 17 10 18 7 5 9 12 17 20 23 25
30 26 20 6 3 4 6 7 4 3 5 17 8 7 9 15 11 14 10 7 13 17 4 9 27 23 18 20 18 22 17 16 15 12 15 5 2 8 5 7 10 15 22 24 25
29 25 21 4 1 5 8 4 5 9 3 6 9 15 13 15 9 10 12 13 9 13 15 19 17 10 11 20 16 22 17 17 17 13 12 20 7 8 6 10 5 7 19 24 23
28 22 9 2 9 13 4 5 7 10 5 10 11 11 11 16 10 16 13 19 20 20 29 28 14 14 9 21 26 10 10 10 9 10 9 17 7 14 7 15 16 11 15 23 24
26 13 8 2 9 5 4 8 13 4 4 8 10 6 8 17 9 17 6 9 12 17 14 15 17 15 15 16 14 29 19 6 16 11 12 7 9 9 17 14 2 2 8 19 21
14 5 6 15 14 3 8 10 3 4 6 8 11 4 5 8 6 10 7 8 7 17 10 10 13 18 18 29 11 4 8 5 9 1 5 4 10 2 1 3 3 5 5 6 15
3 3 10 19 11 8 9 8 3 4 5 5 7 6 10 12 9 12 8 1 9 15 13 6 16 9 24 20 18 14 9 2 4 9 4 4 5 4 19 15 8 5 5 9 8
5 6 8 19 6 8 7 4 3 4 7 5 6 5 8 11 8 8 5 9 11 14 8 6 5 18 16 13 21 16 13 9 5 4 4 4 4 10 12 8 6 9 11 11 11
3 6 7 7 9 3 4 5 6 7 6 5 4 6 9 12 6 6 8 4 9 13 10 3 6 14 17 4 11 12 12 9 7 7 3 2 4 14 14 14 10 12 14 13 13
4 2 6 6 6 5 6 7 4 10 6 7 5 5 10 8 8 9 6 13 12 17 8 8 5 9 12 4 5 15 18 13 13 3 4 2 3 15 13 12 13 13 14 14 15
4 5 6 6 1 2 3 5 7 7 3 7 4 6 11 10 8 10 13 9 18 18 21 7 2 4 7 10 14 16 22 16 7 4 8 6 11 17 18 11 13 14 14 15 16
5 1 0 5 6 5 3 5 8 10 5 5 4 10 11 10 15 6 17 21 20 14 6 2 5 8 6 16 10 15 17 15 7 5 6 9 10 15 16 14 12 10 12 16 17
4 4 4 2 3 5 5 5 7 12 10 5 8 15 12 9 7 22 21 19 16 16 10 2 5 7 10 11 11 14 12 14 9 8 8 8 7 12 17 17 18 16 14 16 16
1 2 1 5 5 4 3 6 8 11 7 7 13 12 8 7 16 19 19 20 21 17 11 4 3 3 5 10 15 3 10 13 9 15 11 9 8 11 13 15 18 18 15 13 14
Wind_Direction
355 351 347 345 343 339 337 336 334 330 330 329 328 325 320 327 325 336 308 235 225 267 337 303 84 136 115 211 184 129 111 224 236 187 234 288 72 320 141 120 281 211 174 181 161
356 351 349 345 342 338 334 332 329 325 327 326 322 318 330 331 285 258 252 280 278 263 291 264 149 135 181 222 226 156 187 216 215 225 253 287 225 325 338 264 227 236 215 133 157
353 348 344 343 342 339 336 330 328 323 326 324 319 313 328 343 341 2 300 337 326 258 235 339 325 194 218 189 223 205 235 211 253 232 244 251 264 209 243 247 209 213 149 155 158
351 347 345 347 344 340 334 328 328 328 328 324 319 319 329 141 60 302 325 332 342 77 105 277 285 252 235 229 231 256 234 211 263 222 242 244 249 180 225 254 224 184 176 164 167
351 348 347 347 343 338 332 329 324 328 324 326 319 334 348 47 14 288 326 335 0 9 332 267 249 237 233 256 293 241 324 269 259 257 235 257 248 261 231 247 241 215 169 182 184
351 348 347 348 344 339 334 330 324 324 325 330 319 339 12 54 304 308 330 4 6 352 307 219 242 234 271 236 240 296 294 266 252 266 257 259 268 227 252 227 251 179 179 179 187
352 348 346 347 344 337 331 328 327 321 333 142 191 0 54 74 313 320 8 4 330 296 284 261 237 175 296 310 262 285 287 282 255 236 230 196 272 242 255 209 210 186 182 179 183
352 349 345 343 342 335 326 330 327 332 89 133 119 61 95 260 316 19 7 354 341 312 256 266 246 218 178 245 314 301 256 253 264 215 213 138 265 245 255 196 197 176 177 180 188
349 347 343 340 339 333 323 330 334 43 113 127 51 33 19 336 8 16 10 343 320 328 299 267 224 197 184 161 313 215 250 235 274 194 174 180 251 231 210 193 180 178 179 183 189
348 345 342 339 339 334 323 346 359 54 104 264 197 38 356 348 341 1 356 335 318 319 331 20 340 238 215 174 230 242 277 288 246 251 207 241 254 252 250 213 187 183 187 189 187
346 343 339 340 337 334 337 14 14 356 37 68 292 119 299 318 32 0 353 340 4 3 23 299 243 226 238 246 260 269 274 267 280 245 208 225 249 252 205 209 207 192 189 190 194
345 341 336 337 333 338 23 67 94 225 326 310 303 41 355 317 5 354 3 7 343 336 320 320 243 252 267 243 251 246 256 263 272 260 242 243 252 234 173 214 201 195 201 197 191
345 340 335 335 330 41 75 96 283 140 145 319 353 18 6 342 49 349 9 340 323 347 352 297 273 299 275 263 252 248 244 254 255 262 260 230 264 239 222 188 209 207 198 201 192
344 338 335 330 47 313 346 13 344 142 88 354 357 353 354 338 21 355 14 335 349 312 329 285 320 331 301 252 242 246 245 256 252 214 244 188 256 234 216 213 196 207 203 203 201
342 336 334 359 275 353 299 341 310 64 56 324 350 304 347 18 293 354 9 351 331 322 314 297 302 300 309 279 246 252 238 245 240 229 232 238 205 256 165 233 206 216 204 205 204
341 335 336 11 22 251 323 334 50 44 8 342 340 340 9 358 322 320 19 5 299 310 328 312 288 289 308 328 292 247 241 234 236 226 226 221 187 234 216 228 206 193 211 210 201
338 331 338 338 318 321 330 43 40 75 340 340 336 344 10 349 325 351 9 9 20 347 352 335 340 337 358 344 329 270 230 216 209 194 217 214 209 235 228 241 235 237 209 209 206
336 328 318 170 326 316 56 58 66 330 18 307 324 326 15 357 328 338 0 10 25 16 321 341 322 10 332 312 278 283 240 210 200 184 219 157 210 240 219 247 213 244 248 209 201
342 340 12 340 340 38 67 54 150 330 310 317 325 340 349 347 312 344 345 6 3 17 358 308 291 307 314 302 320 297 208 306 167 184 103 200 256 357 153 124 58 9 29 304 215
44 20 6 334 338 38 66 94 82 351 316 334 359 11 352 341 349 346 346 22 4 4 344 280 294 315 335 348 6 21 3 337 315 180 170 241 214 4 331 311 334 78 19 9 359
44 52 318 339 36 39 70 92 102 1 20 356 325 321 349 331 318 316 325 306 10 350 343 294 284 310 345 26 15 7 20 335 273 34 146 208 112 356 343 343 46 24 43 35 21
52 49 308 349 49 31 25 359 35 353 5 341 14 355 353 326 311 307 314 326 338 343 332 294 288 314 319 190 2 20 4 353 358 7 358 274 64 20 15 11 47 49 44 37 31
66 321 329 27 68 350 322 355 35 21 11 6 15 11 357 340 326 320 331 331 346 338 320 339 335 320 335 305 255 340 354 3 331 213 43 320 331 1 6 25 28 46 41 44 37
70 27 338 35 38 91 359 353 358 8 12 341 315 15 348 327 317 290 333 324 329 321 325 353 240 173 276 280 299 312 328 336 346 312 347 52 319 351 346 31 21 32 42 43 44
33 0 266 338 348 360 19 14 346 8 3 342 347 1 337 314 314 332 323 315 314 296 315 360 265 278 262 293 299 292 323 329 319 308 295 332 351 349 347 20 20 23 38 49 46
84 39 358 303 292 348 4 7 353 343 332 327 332 325 311 294 336 314 310 301 291 305 319 285 277 303 297 302 302 313 342 332 14 2 313 28 33 357 4 13 19 16 27 41 42
24 24 6 302 341 13 351 340 327 331 295 334 319 321 307 311 304 285 276 278 270 280 295 248 263 304 293 328 313 339 351 343 65 31 360 8 347 4 10 9 18 6 14 27 38